{"data":{"norad_id":68401,"intl_designator":"2026-063X","name":"STARLINK-37175","alt_names":[],"object_type":"PAYLOAD","status":"ACTIVE","operator":null,"country":"US","launch_date":"2026-03-26","launch_site_code":"AFWTR","launch_vehicle":null,"mission":null,"orbit_class":"UNKNOWN","rcs_meters":null,"size_class":null,"mass_kg":null,"dimensions":null,"purposes":["comms"],"wikipedia_slug":null,"has_3d_model":false,"image_url":null,"decayed_at":null,"tle_current":{"epoch":"2026-09-19T16:48:18.337536Z","epoch_age_seconds":116741,"freshness":"FRESH","line1":"1 68401U 26063X   26262.70021224  .00027847  00000+0  86165-3 0  9998","line2":"2 68401  97.2832  43.5332 0000600 100.2158 259.9152 15.33447650 27623","mean_motion":15.3344765,"eccentricity":6.0e-5,"inclination_deg":97.2832,"raan_deg":43.5332,"arg_perigee_deg":100.2158,"mean_anomaly_deg":259.9152,"bstar":0.00086165,"rev_number":2762,"period_min":93.906042374515,"perigee_km":465.12466961652,"apogee_km":465.94591029132,"semimajor_km":6843.6722899539,"source":"CELESTRAK","updated_at":"2026-09-20T09:00:43.898869Z"}}}